SCP
0 0 0 0 0 0 0 0 0 0 0 0 0 0 0 0 0 0 1 1 1 1 1 1 1 1 1 1 1 1 1 1 1 1 1 1 1 1 1 1 1 1 1
-0 -0 -0 0 0 -0 -0 -0 0 0 0 0 0 0 0 0 0 0 0 1 1 1 1 1 1 1 1 1 1 1 1 2 2 2 1 1 1 1 1 1 1 1 1
0 0 0 0 0 0 -0 -0 -0 -0 0 0 0 0 0 0 0 0 0 0 1 1 1 1 1 1 1 1 2 2 2 2 2 2 2 1 1 1 1 1 1 1 1
0 0 0 0 0 0 0 0 0 -0 -0 -0 -0 0 0 0 0 0 0 0 0 0 0 1 1 1 1 1 2 2 2 2 2 2 2 2 1 1 1 1 1 1 1
0 0 0 0 0 0 0 0 0 0 -0 -0 -0 -0 -0 0 0 0 0 0 0 0 0 1 1 1 1 1 2 2 2 2 2 2 2 2 1 1 1 1 1 1 1
0 0 0 0 0 0 0 0 0 0 -0 -0 -0 -0 -0 0 0 0 0 0 0 0 0 0 1 1 1 1 2 2 2 2 2 2 2 2 1 1 1 1 1 1 1
0 0 0 0 0 0 0 0 0 0 0 -0 -0 -0 -0 -0 0 0 0 0 0 0 0 0 1 1 1 1 1 2 2 2 2 2 2 2 2 1 1 1 1 1 1
0 0 0 0 0 0 0 0 0 0 0 0 -0 -0 -0 -0 -0 0 0 0 0 0 0 0 0 1 1 1 1 1 2 2 2 2 2 2 2 1 1 1 1 1 1
0 0 0 0 0 0 0 0 0 0 0 0 -0 -0 -0 -0 -0 -0 0 0 0 0 0 0 0 1 1 1 1 1 1 2 2 2 2 2 2 1 1 1 1 1 1
0 0 0 0 0 0 0 0 0 0 0 0 0 0 -0 -0 -0 -0 0 0 0 0 0 0 0 0 1 1 1 1 1 1 2 3 3 2 2 2 2 2 1 1 1
0 0 0 0 0 0 0 0 0 0 0 0 0 0 0 0 0 0 0 0 0 0 0 0 0 0 0 0 1 1 1 1 2 2 3 3 2 2 2 2 2 2 2
0 0 0 0 0 0 0 0 0 0 0 0 0 0 0 0 0 0 0 0 0 0 0 0 0 0 0 0 0 1 1 1 1 2 2 3 2 2 2 2 2 2 2
0 0 0 0 0 0 0 0 0 0 0 0 0 0 0 0 0 0 0 0 0 0 0 0 0 0 0 0 0 0 1 1 1 1 2 2 2 2 2 2 2 2 2
0 0 0 0 0 0 0 0 0 0 0 0 0 0 0 0 0 0 0 0 0 0 0 0 0 0 0 0 0 0 0 1 1 1 1 1 1 2 2 2 2 2 2
0 0 0 0 0 0 0 0 0 0 0 0 0 0 0 0 0 0 0 0 0 0 0 0 0 0 0 0 0 0 0 1 1 1 0 1 1 1 1 2 2 2 2
0 0 0 0 0 0 0 0 0 0 0 0 0 0 0 0 0 0 0 0 0 0 0 0 0 0 0 0 0 0 0 0 0 0 0 0 0 0 1 1 1 1 2
0 0 0 0 0 0 0 0 0 0 0 0 0 0 0 0 0 0 0 0 0 0 0 0 0 0 0 0 0 0 0 0 0 0 0 0 0 0 0 0 1 1 1
0 0 0 0 0 0 0 0 0 0 0 0 0 0 0 0 0 0 0 0 0 0 0 0 0 0 0 0 0 0 0 0 0 0 0 0 0 0 0 0 0 0 1
0 0 0 0 0 0 0 0 0 0 0 0 0 0 0 0 0 0 0 0 0 0 0 0 0 0 0 0 0 0 0 0 0 0 0 0 0 0 0 0 0 0 0
0 0 0 0 0 0 0 0 0 0 0 0 0 0 0 0 0 0 0 0 0 0 0 0 0 0 0 0 0 0 0 0 0 0 0 0 0 0 0 0 0 0 0
0 0 0 0 0 0 0 0 0 0 0 0 0 0 0 0 0 0 0 0 0 0 0 0 0 0 0 0 0 0 0 0 0 0 0 0 0 0 0 0 0 0 0
0 0 0 0 0 0 0 0 0 0 0 0 0 0 0 0 0 0 0 0 0 0 0 0 0 0 0 0 0 0 0 0 0 0 0 0 0 0 0 0 0 0 0
0 0 0 0 0 0 0 0 0 0 0 0 0 0 0 0 0 0 0 0 0 0 0 0 0 0 0 0 0 0 0 0 0 0 0 0 0 0 0 0 0 0 0
0 0 0 0 0 0 0 0 0 0 0 0 0 0 0 0 0 0 0 0 0 0 0 0 0 0 0 0 0 0 0 0 0 0 0 0 0 0 0 0 0 0 0
0 0 0 0 0 0 0 0 0 0 0 0 0 0 0 0 0 0 0 0 0 0 0 0 0 0 0 0 0 0 0 0 0 0 0 0 0 0 0 0 0 0 0
0 0 0 0 0 0 0 0 0 0 0 0 0 0 0 0 0 0 0 0 0 0 0 0 0 0 0 0 0 0 0 0 0 0 0 0 0 0 0 0 0 0 0
Wind_Speed
9 10 10 10 10 8 10 11 11 12 13 13 13 13 12 11 10 8 5 12 15 15 14 14 15 16 16 16 16 17 18 19 17 15 13 12 12 11 10 10 10 11 12
9 9 10 10 10 9 10 10 12 12 11 11 13 15 14 11 10 9 7 9 15 16 16 16 16 18 18 18 17 17 18 20 19 17 15 14 13 12 11 11 10 11 12
10 10 9 9 9 9 11 10 11 9 10 11 13 15 14 13 12 12 9 5 8 14 16 17 18 18 19 19 19 18 18 20 19 18 16 15 14 13 13 12 11 11 11
13 11 10 10 10 10 9 10 9 10 10 10 11 11 12 12 15 14 10 7 5 7 12 17 17 19 20 20 20 18 17 19 20 19 18 16 16 15 15 14 13 13 12
13 11 10 10 13 10 10 11 10 10 11 11 11 11 10 11 13 15 14 10 7 6 6 13 18 18 19 20 21 20 17 19 21 21 21 19 18 17 16 15 14 14 13
13 12 10 12 13 11 10 11 12 11 10 11 13 12 11 12 12 13 14 11 7 7 7 7 8 12 17 18 19 19 19 19 21 22 22 21 21 19 18 17 16 15 15
13 11 10 11 12 11 12 13 13 13 11 10 10 11 10 12 14 12 11 10 9 7 6 7 6 6 8 17 18 18 21 21 22 23 23 23 22 22 21 20 19 17 17
13 12 11 10 11 11 13 13 13 10 10 9 9 10 8 8 5 8 8 10 10 7 7 8 8 8 7 7 11 17 17 21 23 23 24 24 24 24 23 22 21 20 18
12 12 11 10 10 10 10 13 13 13 11 10 7 6 6 7 12 11 10 8 6 6 7 6 8 8 8 6 8 15 18 19 22 23 24 25 26 26 25 23 22 21 20
12 12 12 11 10 10 12 12 12 12 12 9 8 6 7 8 7 9 12 10 12 9 7 7 7 8 8 6 7 12 17 19 21 22 24 25 27 27 26 24 23 22 20
10 12 13 11 11 10 12 13 14 13 10 10 8 8 9 8 10 9 13 15 11 9 8 6 5 6 8 7 6 9 15 18 21 20 20 23 26 28 27 26 24 22 21
8 10 14 11 11 11 12 13 14 14 11 11 9 8 9 8 7 8 10 14 14 12 11 8 5 3 5 6 7 11 14 15 17 18 18 19 22 24 26 25 24 23 23
9 10 13 12 11 12 13 14 14 13 13 12 9 8 9 10 10 10 11 12 15 13 10 10 7 4 3 4 4 9 11 14 14 14 14 15 17 19 21 23 24 25 25
10 11 12 13 13 15 15 14 13 13 12 11 11 11 9 10 10 11 11 10 12 12 10 9 7 5 4 4 5 8 6 12 13 12 12 13 14 15 18 20 22 24 23
11 13 13 13 14 15 15 15 12 14 14 11 10 11 10 9 10 11 11 11 11 11 11 8 6 5 3 4 6 5 5 10 13 13 12 12 13 14 16 18 20 22 22
12 13 13 14 15 15 15 14 13 14 15 11 8 11 12 10 10 10 10 11 11 12 11 6 5 4 4 2 6 5 6 10 13 14 14 14 14 14 15 16 19 22 22
12 13 14 15 16 15 15 15 15 17 16 12 11 12 13 14 11 10 9 9 9 10 12 9 7 6 5 3 2 3 4 5 6 14 16 15 15 15 15 16 18 21 23
11 13 13 15 16 16 16 15 16 18 15 12 11 13 14 12 13 11 9 8 7 7 8 9 6 5 6 4 3 3 3 3 4 10 14 15 15 16 16 16 17 20 23
11 12 13 14 15 16 16 15 15 17 14 11 10 12 13 14 13 11 11 8 6 6 5 6 6 4 4 3 3 3 3 2 3 5 10 12 14 15 16 17 19 21 23
11 11 11 13 15 16 15 14 15 15 12 10 9 10 12 13 13 13 10 10 8 6 5 5 5 4 4 3 3 3 3 2 3 3 5 7 11 14 17 20 21 22 23
14 11 11 13 14 14 13 16 15 13 9 8 8 10 11 16 19 16 12 12 10 6 4 3 3 3 3 3 3 3 4 4 3 3 6 6 7 8 11 19 23 26 27
11 11 12 14 14 14 25 28 20 8 6 6 8 10 11 13 18 21 24 23 22 14 10 6 4 3 2 2 2 3 5 6 4 4 6 7 7 9 8 10 22 28 29
10 11 12 13 13 17 28 28 23 10 7 7 8 9 11 14 16 13 18 21 21 25 23 12 9 8 6 5 4 4 6 7 5 6 9 9 7 9 8 14 24 25 26
9 9 11 13 13 18 29 27 22 12 8 9 9 9 11 12 16 16 14 14 14 16 19 13 12 11 11 9 5 4 3 6 6 3 6 10 8 8 9 10 19 23 24
8 8 9 11 13 16 27 27 22 9 8 10 11 13 12 12 24 24 16 14 14 14 19 24 24 22 25 26 17 4 3 10 10 4 3 7 7 8 8 7 13 21 22
8 10 11 10 12 13 25 28 23 9 10 10 10 12 20 22 26 25 15 14 15 14 14 16 18 20 18 21 25 14 6 3 9 6 2 5 7 7 8 6 7 9 14
Wind_Direction
345 342 336 333 330 339 341 331 325 328 328 324 322 320 313 303 284 264 246 196 185 191 206 221 230 232 230 226 222 211 201 193 191 190 188 185 178 172 171 172 174 172 170
341 339 332 330 330 340 333 325 326 327 324 324 324 323 316 309 297 285 263 212 198 194 203 217 228 233 233 229 226 216 207 198 192 189 188 186 181 178 177 177 175 174 174
340 339 331 327 331 333 328 326 325 327 327 327 324 322 318 312 306 294 279 243 215 208 205 213 223 230 234 232 228 223 212 204 193 186 187 186 182 181 181 180 177 175 175
342 339 332 326 332 333 328 327 331 334 329 325 322 316 311 308 304 298 288 272 237 214 212 214 219 225 230 233 231 225 215 204 194 186 187 188 186 185 186 184 180 177 175
343 339 328 329 335 332 330 332 334 331 328 324 318 307 304 303 301 298 291 276 259 234 207 210 214 221 225 229 231 227 217 204 196 191 189 189 190 189 189 188 184 182 179
341 336 328 335 334 329 330 330 328 330 326 323 317 311 304 291 283 279 279 275 259 243 222 204 200 218 222 225 229 230 222 208 201 195 192 190 190 191 191 189 186 185 184
338 332 335 334 332 328 327 326 328 325 325 323 321 319 297 275 260 259 259 259 254 246 232 216 197 194 211 223 225 227 226 215 206 201 196 193 190 191 191 189 188 187 187
335 335 335 334 331 327 324 325 325 319 319 330 325 319 316 305 325 287 264 248 240 234 235 225 209 203 195 196 215 219 225 223 212 205 201 197 194 193 193 191 189 189 189
333 331 331 333 329 327 322 322 320 320 318 315 310 309 317 323 331 306 311 296 268 235 227 225 215 211 205 191 194 211 215 221 220 209 202 199 198 197 195 192 190 190 190
330 332 333 333 328 326 322 320 322 315 310 309 308 290 282 293 299 310 312 319 323 297 252 226 217 211 207 201 195 196 205 212 219 215 206 202 201 200 198 194 192 190 189
328 332 333 330 327 324 322 320 317 310 306 302 303 300 288 272 263 277 292 301 307 304 303 271 225 207 203 198 197 197 198 208 214 215 210 205 204 204 202 197 193 190 189
329 331 331 328 325 325 323 320 314 308 303 299 299 299 292 279 265 262 272 288 297 301 308 300 280 228 200 191 199 200 197 203 213 213 209 206 205 204 203 199 195 190 189
331 327 330 326 327 326 325 323 317 312 305 301 301 300 294 285 276 264 263 274 283 291 295 295 280 253 214 186 195 203 201 200 207 211 209 206 205 204 202 198 195 191 191
324 325 329 327 328 327 327 326 320 318 310 309 308 308 299 287 277 266 255 257 269 278 281 276 290 266 229 190 196 194 198 201 203 208 209 209 208 206 203 199 194 190 189
325 329 329 331 329 327 328 328 320 321 317 311 313 312 306 296 282 269 256 243 247 259 269 275 278 274 249 204 194 184 189 199 202 209 212 210 211 210 206 199 192 188 185
325 327 331 331 329 328 329 328 322 323 319 316 319 319 315 306 299 279 260 247 238 244 256 266 273 296 300 258 203 189 200 203 206 210 215 214 211 210 208 202 193 187 182
326 330 332 331 330 329 329 326 324 325 322 320 325 323 319 316 309 305 283 256 241 237 246 258 267 282 294 280 246 211 206 202 205 209 213 216 214 209 206 202 194 185 177
326 330 331 330 329 328 324 323 323 324 320 319 325 324 323 321 318 311 306 294 273 254 246 251 256 262 263 260 237 224 215 201 195 203 207 212 213 210 202 195 187 177 169
324 327 329 329 326 323 319 317 318 317 316 313 319 324 324 324 325 320 315 310 296 282 263 253 251 249 252 250 242 233 210 190 179 185 192 195 198 196 187 177 170 163 158
322 323 326 324 319 316 312 308 313 313 312 311 318 328 328 330 334 333 333 333 322 306 284 263 250 243 241 243 214 204 197 172 162 153 143 140 149 155 158 153 147 141 135
323 319 321 318 315 315 312 313 313 313 312 319 334 340 340 350 357 358 0 360 355 347 330 298 267 240 226 221 214 188 183 155 136 141 129 123 122 122 127 127 125 125 122
320 322 320 316 316 321 321 327 333 326 333 349 355 353 353 357 10 8 12 16 17 16 12 1 344 321 294 265 250 203 172 165 161 156 130 115 113 110 110 113 120 118 118
324 323 319 318 318 320 331 338 353 7 11 12 13 11 11 7 21 12 11 16 16 20 26 21 13 7 353 339 316 249 197 170 146 151 135 118 111 109 107 118 118 117 118
321 317 318 323 326 330 340 352 14 16 20 23 21 20 21 11 24 25 13 16 15 15 17 20 18 12 6 357 320 277 212 134 108 109 131 120 113 106 108 115 122 123 124
320 319 323 328 333 336 348 5 23 9 21 25 23 24 27 23 28 30 19 17 18 13 13 19 22 22 20 20 17 1 176 159 142 108 63 104 114 99 80 82 117 123 126
330 331 335 336 339 344 357 12 28 21 27 31 25 16 24 31 29 33 25 18 23 14 9 9 15 16 18 19 23 22 357 167 139 118 47 109 121 111 92 47 60 100 112